Weather History for Claremore, OK

Change the Weather History Date:

Sunday, October 28, 2012

  Actual Average (KTUL) Record (KTUL)
Temperature  
Mean Temperature 40 °F 58 °F  
Max Temperature 53 °F 69 °F 86 °F (1922)
Min Temperature 26 °F 47 °F 23 °F (1925)
Degree Days  
Heating Degree Days 26 8  
Month to date heating degree days 137  
Since 1 July heating degree days 161  
Cooling Degree Days 0 1  
Month to date cooling degree days 59  
Year to date cooling degree days 2024  
Moisture  
Dew Point 30 °F    
Average Humidity 71    
Maximum Humidity 100    
Minimum Humidity 38    
Precipitation  
Precipitation 0.00 in 0.13 in 2.45 in (1974)
Month to date precipitation 3.56  
Year to date precipitation 35.30  
Sea Level Pressure  
Sea Level Pressure 30.30 in    
Wind  
Wind Speed 4 mph (NE)    
Max Wind Speed 7 mph    
Max Gust Speed -    
Visibility 8 miles    
Events      
T = Trace of Precipitation, MM = Missing Value Source: NWS Daily Summary

Daily Weather History Graph

Daily Weather History Graph

Search for Another Location

Airport:

Trip Planner

Search our weather history database for the weather conditions in past years. The results will help you decide how hot, cold, wet, or windy it might be!

Date:

Astronomy

Oct. 28, 2012 Rise Set
Actual Time 7:41 AM CDT 6:29 PM CDT
Civil Twilight 7:15 AM CDT 6:55 PM CDT
Nautical Twilight 6:44 AM CDT 7:25 PM CDT
Astronomical Twilight 6:14 AM CDT 7:55 PM CDT
Moon 5:47 PM CDT (10/28) 6:36 AM CDT (10/28)
Length of Visible Light 11h 40m
Length of Day
10h 47m
Waxing Gibbous, 99% of the Moon is Illuminated
Oct 28
Waxing Gibbous
Oct 29
Full
Nov 6
Last Quarter
Nov 13
New
Nov 20
First Quarter

Hourly Weather History & Observations

Time (CDT) Temp. Windchill Dew Point Humidity Pressure Visibility Wind Dir Wind Speed Gust Speed Precip Events Conditions
12:15 AM 32.0 °F 26.4 °F 28.4 °F 87% 30.31 in 10.0 mi NNE 5.8 mph - N/A   Clear
12:35 AM 32.0 °F 26.4 °F 28.4 °F 87% 30.31 in 10.0 mi NE 5.8 mph - N/A   Clear
12:55 AM 33.8 °F 28.6 °F 28.4 °F 81% 30.31 in 7.0 mi NNE 5.8 mph - N/A   Clear
1:15 AM 33.8 °F 29.6 °F 28.4 °F 81% 30.31 in 7.0 mi NNE 4.6 mph - N/A   Clear
1:35 AM 33.8 °F 29.6 °F 28.4 °F 81% 30.31 in 10.0 mi NNE 4.6 mph - N/A   Clear
2:15 AM 32.0 °F - 28.4 °F 87% 30.31 in 10.0 mi Calm Calm - N/A   Clear
2:55 AM 32.0 °F 27.5 °F 28.4 °F 87% 30.30 in 5.0 mi NE 4.6 mph - N/A   Haze
3:15 AM 32.0 °F 26.4 °F 28.4 °F 87% 30.30 in 3.0 mi ENE 5.8 mph - N/A   Haze
3:35 AM 32.0 °F 28.7 °F 28.4 °F 87% 30.30 in 10.0 mi ENE 3.5 mph - N/A   Clear
3:55 AM 32.0 °F 25.6 °F 28.4 °F 87% 30.29 in 5.0 mi ENE 6.9 mph - N/A   Haze
4:15 AM 32.0 °F 26.4 °F 28.4 °F 87% 30.29 in 3.0 mi NE 5.8 mph - N/A   Clear
4:35 AM 32.0 °F 26.4 °F 28.4 °F 87% 30.28 in 10.0 mi NE 5.8 mph - N/A   Clear
4:55 AM 32.0 °F - 28.4 °F 87% 30.29 in 10.0 mi Calm Calm - N/A   Clear
5:15 AM 30.2 °F - 28.4 °F 93% 30.30 in 10.0 mi Calm Calm - N/A   Clear
5:35 AM 30.2 °F - 28.4 °F 93% 30.31 in 10.0 mi Calm Calm - N/A   Clear
5:55 AM 30.2 °F - 28.4 °F 93% 30.31 in 7.0 mi Calm Calm - N/A   Clear
6:15 AM 28.4 °F - 26.6 °F 93% 30.31 in 10.0 mi Calm Calm - N/A   Clear
6:35 AM 28.4 °F - 26.6 °F 93% 30.32 in 7.0 mi Calm Calm - N/A   Clear
6:55 AM 28.4 °F - 26.6 °F 93% 30.32 in 7.0 mi Calm Calm - N/A   Clear
7:15 AM 26.6 °F 22.6 °F 24.8 °F 93% 30.33 in 4.0 mi West 3.5 mph - N/A   Clear
7:35 AM 26.6 °F - 26.6 °F 100% 30.33 in 4.0 mi Calm Calm - N/A   Clear
7:55 AM 28.4 °F - 26.6 °F 93% 30.33 in 3.0 mi Calm Calm - N/A   Clear
8:15 AM 26.6 °F - 26.6 °F 100% 30.34 in 7.0 mi Calm Calm - N/A   Clear
8:35 AM 30.2 °F - 28.4 °F 93% 30.35 in 5.0 mi Calm Calm - N/A   Clear
8:55 AM 32.0 °F - 30.2 °F 93% 30.35 in 7.0 mi Calm Calm - N/A   Clear
9:15 AM 32.0 °F 28.7 °F 32.0 °F 100% 30.36 in 10.0 mi NNE 3.5 mph - N/A   Clear
9:35 AM 35.6 °F 31.7 °F 32.0 °F 87% 30.36 in 10.0 mi NNE 4.6 mph - N/A   Clear
9:55 AM 37.4 °F 32.8 °F 32.0 °F 81% 30.35 in 10.0 mi NNE 5.8 mph - N/A   Clear
10:15 AM 41.0 °F 37.1 °F 32.0 °F 70% 30.35 in 10.0 mi NNE 5.8 mph - N/A   Clear
10:35 AM 42.8 °F 41.1 °F 32.0 °F 66% 30.35 in 10.0 mi NNE 3.5 mph - N/A   Clear
10:55 AM 42.8 °F 41.1 °F 32.0 °F 66% 30.35 in 10.0 mi NNE 3.5 mph - N/A   Clear
11:35 AM 46.4 °F 43.5 °F 32.0 °F 57% 30.35 in 10.0 mi North 5.8 mph - N/A   Clear
11:55 AM 46.4 °F 42.9 °F 32.0 °F 57% 30.35 in 10.0 mi NNE 6.9 mph - N/A   Clear
12:15 PM 48.2 °F - 32.0 °F 54% 30.34 in 10.0 mi East 4.6 mph - N/A   Clear
12:35 PM 50.0 °F - 32.0 °F 50% 30.34 in 10.0 mi North 6.9 mph - N/A   Clear
1:15 PM 51.8 °F - 30.2 °F 44% 30.33 in 10.0 mi East 3.5 mph - N/A   Clear
1:35 PM 51.8 °F - 30.2 °F 44% 30.32 in 10.0 mi East 3.5 mph - N/A   Clear
1:55 PM 51.8 °F - 30.2 °F 44% 30.31 in 10.0 mi NNE 6.9 mph - N/A   Clear
2:15 PM 51.8 °F - 30.2 °F 44% 30.30 in 10.0 mi NNE 4.6 mph - N/A   Clear
2:35 PM 53.6 °F - 32.0 °F 44% 30.28 in 10.0 mi ENE 3.5 mph - N/A   Clear
2:55 PM 53.6 °F - 30.2 °F 41% 30.28 in 10.0 mi East 5.8 mph - N/A   Clear
3:15 PM 53.6 °F - 30.2 °F 41% 30.28 in 10.0 mi NE 5.8 mph - N/A   Clear
3:35 PM 53.6 °F - 30.2 °F 41% 30.28 in 10.0 mi ENE 5.8 mph - N/A   Clear
3:55 PM 53.6 °F - 28.4 °F 38% 30.27 in 10.0 mi ENE 5.8 mph - N/A   Clear
4:15 PM 53.6 °F - 30.2 °F 41% 30.26 in 10.0 mi East 3.5 mph - N/A   Clear
4:35 PM 53.6 °F - 30.2 °F 41% 30.26 in 10.0 mi NE 4.6 mph - N/A   Clear
4:55 PM 53.6 °F - 28.4 °F 38% 30.26 in 10.0 mi NE 3.5 mph - N/A   Clear
5:15 PM 53.6 °F - 30.2 °F 41% 30.26 in 10.0 mi North 3.5 mph - N/A   Clear
5:35 PM 53.6 °F - 30.2 °F 41% 30.26 in 10.0 mi Calm Calm - N/A   Clear
5:55 PM 51.8 °F - 30.2 °F 44% 30.26 in 10.0 mi ENE 3.5 mph - N/A   Clear
6:15 PM 50.0 °F - 30.2 °F 47% 30.26 in 10.0 mi East 3.5 mph - N/A   Clear
6:55 PM 44.6 °F 42.2 °F 32.0 °F 61% 30.27 in 10.0 mi East 4.6 mph - N/A   Clear
7:15 PM 44.6 °F 42.2 °F 32.0 °F 61% 30.27 in 10.0 mi East 4.6 mph - N/A   Clear
7:35 PM 42.8 °F 40.1 °F 30.2 °F 61% 30.27 in 10.0 mi ENE 4.6 mph - N/A   Clear
8:15 PM 41.0 °F 38.0 °F 32.0 °F 70% 30.27 in 3.0 mi ENE 4.6 mph - N/A   Haze
8:35 PM 41.0 °F 38.0 °F 32.0 °F 70% 30.26 in 4.0 mi NE 4.6 mph - N/A   Haze
9:15 PM 39.2 °F 37.0 °F 32.0 °F 75% 30.27 in 10.0 mi NNE 3.5 mph - N/A   Clear
9:35 PM 37.4 °F 34.9 °F 32.0 °F 81% 30.28 in 3.0 mi North 3.5 mph - N/A   Haze
9:55 PM 37.4 °F 34.9 °F 32.0 °F 81% 30.29 in 10.0 mi NNE 3.5 mph - N/A   Clear
10:15 PM 37.4 °F 34.9 °F 32.0 °F 81% 30.29 in 10.0 mi NE 3.5 mph - N/A   Clear
10:35 PM 37.4 °F 34.9 °F 30.2 °F 75% 30.29 in 10.0 mi ENE 3.5 mph - N/A   Clear
10:55 PM 37.4 °F 33.8 °F 30.2 °F 75% 30.29 in 10.0 mi NE 4.6 mph - N/A   Clear
11:15 PM 35.6 °F 32.8 °F 30.2 °F 81% 30.29 in 10.0 mi NE 3.5 mph - N/A   Clear
11:35 PM 35.6 °F 31.7 °F 30.2 °F 81% 30.29 in 1.2 mi NE 4.6 mph - N/A   Haze
11:55 PM 35.6 °F 31.7 °F 30.2 °F 81% 30.30 in 0.5 mi NNE 4.6 mph - N/A   Haze